This is the latest recevied weather packets stored in our database for station/object LU5DTF-1. If no packets are shown the sender has not sent any weather packets the latest 10 day(s).
| Time | Temp. | Humidity | Pressure | Rain* | Wind** | Luminosity | Snow |
|---|---|---|---|---|---|---|---|
| 1777983903 | 16.67° C | 66% | 1013.1 hPa | 0 mm | - | - | - |
| 1777983603 | 16.67° C | 68% | 1013.1 hPa | 0 mm | - | - | - |
| 1777981803 | 15.56° C | 75% | 1012.8 hPa | 0 mm | - | - | - |
| 1777981203 | 15.56° C | 75% | 1012.8 hPa | 0 mm | - | - | - |
| 1777980903 | 15° C | 73% | 1012.8 hPa | 0 mm | - | - | - |
| 1777980003 | 15° C | 72% | 1012.5 hPa | 0 mm | - | - | - |
| 1777979703 | 15° C | 72% | 1012.4 hPa | 0 mm | - | - | - |
| 1777979403 | 14.44° C | 72% | 1012.6 hPa | 0 mm | - | - | - |
| 1777979103 | 14.44° C | 72% | 1012.5 hPa | 0 mm | - | - | - |
| 1777978503 | 14.44° C | 73% | 1012.7 hPa | 0 mm | - | - | - |
| 1777978203 | 14.44° C | 73% | 1012.8 hPa | 0 mm | - | - | - |
| 1777977303 | 14.44° C | 72% | 1012.4 hPa | 0 mm | - | - | - |
| 1777977003 | 14.44° C | 72% | 1012.2 hPa | 0 mm | - | - | - |
| 1777976703 | 14.44° C | 72% | 1012.2 hPa | 0 mm | - | - | - |
| 1777976403 | 14.44° C | 72% | 1012.3 hPa | 0 mm | - | - | - |
| 1777976103 | 14.44° C | 72% | 1012.2 hPa | 0 mm | - | - | - |
| 1777975803 | 14.44° C | 72% | 1012.2 hPa | 0 mm | - | - | - |
| 1777975503 | 14.44° C | 72% | 1012.2 hPa | 0 mm | - | - | - |
| 1777975203 | 13.89° C | 73% | 1012.3 hPa | 0 mm | - | - | - |
| 1777974906 | 14.44° C | 73% | 1012.4 hPa | 0 mm | - | - | - |
| 1777974603 | 14.44° C | 73% | 1012.2 hPa | 0 mm | - | - | - |
| 1777974003 | 14.44° C | 72% | 1012.1 hPa | 0 mm | - | - | - |
| 1777973703 | 14.44° C | 72% | 1012 hPa | 0 mm | - | - | - |
| 1777973403 | 14.44° C | 70% | 1011.8 hPa | 0 mm | - | - | - |
| 1777973103 | 14.44° C | 71% | 1011.6 hPa | 0 mm | - | - | - |
* Rain latest hour (hover to see other rain measurements)
** Current wind speed in m/s (hover to see current wind gust speed)